DW4776 Weather Reports


time (UTC)temp
C
wind
direction
speed
KPH
gust
KPH
rain 1hr
cm
rain 24hr
cm
rain mn
cm
humidity
%
barometer
mb
20260904141546 15 50 4.8 16.1 0.00 0.00 0.00 48 1008.0
20260904140044 15 63 16.1 24.1 0.00 0.00 0.00 48 1007.7
20260904134553 14 73 8.0 17.7 0.00 0.00 0.00 50 1008.0
20260904133046 13 62 9.7 19.3 0.00 0.00 0.00 52 1008.0
20260904131545 13 56 4.8 16.1 0.00 0.00 0.00 53 1008.1
20260904130041 13 50 6.4 17.7 0.00 0.00 0.00 54 1007.6
20260904124545 12 54 11.3 24.1 0.00 0.00 0.00 55 1007.7
20260904123043 12 121 8.0 14.5 0.00 0.00 0.00 57 1007.9
20260904121544 12 54 6.4 14.5 0.00 0.00 0.00 58 1007.6
20260904120052 12 56 6.4 12.9 0.00 0.00 0.00 55 1007.9
20260904114547 13 360 3.2 19.3 0.00 0.00 0.00 53 1007.9
20260904113046 13 56 8.0 16.1 0.00 0.00 0.00 52 1008.0
20260904111546 13 29 11.3 16.1 0.00 0.00 0.00 52 1007.9
20260904110043 13 50 8.0 16.1 0.00 0.00 0.00 52 1008.0
20260904104548 13 61 3.2 24.1 0.00 0.00 0.00 52 1008.1
20260904103044 13 37 14.5 20.9 0.00 0.00 0.00 53 1008.3
20260904101544 12 50 4.8 12.9 0.00 0.00 0.00 58 1008.6
20260904100040 12 268 3.2 6.4 0.00 0.00 0.00 57 1008.8
20260904094551 12 90 1.6 12.9 0.00 0.00 0.00 57 1008.8
20260904093047 12 19 11.3 16.1 0.00 0.00 0.00 57 1008.9
20260904091542 11 50 9.7 14.5 0.00 0.00 0.00 59 1008.9
20260904090046 11 45 9.7 14.5 0.00 0.00 0.00 60 1009.2
20260904084545 11 50 8.0 16.1 0.00 0.00 0.00 60 1009.2
20260904083046 11 83 8.0 16.1 0.00 0.00 0.00 59 1009.4
20260904081546 11 85 6.4 11.3 0.00 0.00 0.00 63 1009.4
20260904080044 11 86 4.8 11.3 0.00 0.00 0.00 64 1009.6
20260904074542 12 77 8.0 11.3 0.00 0.00 0.00 61 1009.7
20260904073046 13 81 4.8 8.0 0.00 0.00 0.00 58 1009.8
20260904071545 13 65 6.4 12.9 0.00 0.00 0.00 55 1009.8
20260904070044 13 79 4.8 11.3 0.00 0.00 0.00 56 1009.9
20260904064540 13 100 3.2 4.8 0.00 0.00 0.00 55 1009.8
20260904063046 13 348 3.2 8.0 0.00 0.00 0.00 56 1010.0
20260904061546 13 69 3.2 6.4 0.00 0.00 0.00 56 1010.1
20260904060041 13 67 1.6 4.8 0.00 0.00 0.00 56 1010.0
20260904054549 13 67 4.8 9.7 0.00 0.00 0.00 56 1010.3
20260904053050 12 0 1.6 6.4 0.00 0.00 0.00 57 1010.7
20260904051547 12 73 1.6 6.4 0.00 0.00 0.00 58 1010.8
20260904050043 12 73 1.6 6.4 0.00 0.00 0.00 60 1010.8
20260904044546 11 73 3.2 8.0 0.00 0.00 0.00 62 1010.8
20260904043051 11 86 4.8 8.0 0.00 0.00 0.00 62 1010.6
20260904041548 11 81 6.4 11.3 0.00 0.00 0.00 63 1010.5
20260904040100 11 91 6.4 9.7 0.00 0.00 0.00 60 1010.4
20260904034550 12 0 0.0 8.0 0.00 0.00 0.00 58 1010.4
20260904033049 12 343 1.6 8.0 0.00 0.00 0.00 55 1010.5
20260904031546 12 0 0.0 1.6 0.00 0.00 0.00 55 1010.6
20260904030045 12 50 0.0 9.7 0.00 0.00 0.00 54 1010.3
20260904024548 13 8 1.6 4.8 0.00 0.00 0.00 50 1010.3
20260904023057 15 8 1.6 9.7 0.00 0.00 0.00 47 1010.2
20260904021545 16 353 9.7 12.9 0.00 0.00 0.00 43 1010.0
20260904020046 17 286 4.8 6.4 0.00 0.00 0.00 40 1010.0
20260904014557 18 286 4.8 12.9 0.00 0.00 0.00 39 1009.9
20260904013047 18 274 6.4 14.5 0.00 0.00 0.00 37 1010.0
20260904011546 19 291 14.5 20.9 0.00 0.00 0.00 36 1009.8
20260904010049 20 289 19.3 29.0 0.00 0.00 0.00 35 1009.7
20260904004549 20 265 17.7 27.4 0.00 0.05 0.00 34 1009.6
20260904003045 20 289 19.3 33.8 0.00 0.05 0.00 33 1009.5
20260904001540 21 277 22.5 33.8 0.00 0.05 0.00 34 1009.5
20260904000044 21 281 24.1 35.4 0.00 0.05 0.00 33 1009.2
20260903234546 21 265 22.5 38.6 0.00 0.23 0.00 33 1009.0
20260903233051 22 303 27.4 38.6 0.00 0.23 0.00 32 1009.0
20260903231551 22 268 16.1 40.2 0.00 0.23 0.00 33 1009.1
20260903230048 22 279 27.4 38.6 0.00 0.23 0.00 33 1009.0
20260903224602 22 262 22.5 41.8 0.00 0.23 0.00 33 1008.8
20260903223045 22 265 22.5 41.8 0.00 0.23 0.00 34 1008.5
20260903221544 22 294 19.3 37.0 0.00 0.23 0.00 33 1008.3
20260903220047 22 269 22.5 33.8 0.00 0.23 0.00 34 1008.2
20260903214604 22 231 14.5 29.0 0.00 0.23 0.00 33 1008.2
20260903213058 22 225 19.3 33.8 0.00 0.23 0.00 32 1008.1
20260903211545 21 255 14.5 22.5 0.00 0.23 0.00 34 1008.1
20260903210059 22 258 14.5 30.6 0.00 0.23 0.00 33 1008.2
20260903204548 22 241 14.5 29.0 0.00 0.23 0.00 33 1008.2
20260903203105 21 241 16.1 24.1 0.00 0.23 0.00 35 1008.3
20260903201546 21 216 16.1 25.7 0.00 0.23 0.00 34 1008.3
20260903200051 21 258 19.3 30.6 0.00 0.23 0.00 35 1008.3
20260903194543 21 259 17.7 33.8 0.00 0.23 0.00 35 1008.1
20260903193046 21 239 17.7 35.4 0.00 0.23 0.00 34 1008.2
20260903191542 21 258 20.9 40.2 0.00 0.23 0.00 34 1008.3
20260903190045 20 226 24.1 38.6 0.00 0.23 0.00 36 1008.2
20260903184546 20 267 17.7 33.8 0.00 0.23 0.00 39 1008.1
20260903183049 20 256 16.1 37.0 0.00 0.23 0.00 36 1007.9
20260903181541 20 204 16.1 33.8 0.00 0.23 0.00 40 1008.0
20260903180044 20 240 14.5 33.8 0.00 0.23 0.00 42 1008.1
20260903174550 19 210 17.7 35.4 0.00 0.23 0.00 43 1008.3
20260903173048 18 243 14.5 32.2 0.00 0.23 0.00 50 1008.5
20260903171547 16 200 6.4 14.5 0.00 0.23 0.00 59 1008.6
20260903170045 15 225 11.3 19.3 0.00 0.23 0.00 62 1008.6
20260903164546 13 256 8.0 12.9 0.00 0.23 0.00 70 1008.6
20260903163046 12 237 6.4 12.9 0.00 0.23 0.00 70 1008.6
20260903161545 12 215 8.0 14.5 0.00 0.23 0.00 70 1008.8
20260903160045 12 212 8.0 12.9 0.00 0.23 0.00 69 1008.7
20260903154603 11 223 9.7 14.5 0.00 0.23 0.00 72 1008.6
20260903153050 11 195 11.3 16.1 0.00 0.23 0.00 74 1008.4
20260903151541 11 210 8.0 14.5 0.00 0.23 0.00 77 1008.5
20260903150042 10 231 6.4 9.7 0.00 0.23 0.00 80 1008.6
20260903144545 10 247 4.8 9.7 0.00 0.23 0.00 82 1008.6
20260903143101 8 214 3.2 9.7 0.00 0.23 0.00 84 1008.3
20260903141558 8 227 8.0 11.3 0.00 0.23 0.00 85 1008.1